カタログに戻る

EDUSAT

運用中通信SSO
NORAD 37788·PAYLOAD·🇮🇹 Italy

打ち上げ Aug 17, 2011 から Dombarovsky

Loading…

次のパス (今後24時間)

TLE

最新Source: Space-Track

元期: Sep 13, 2026, 16:04 UTC

1 37788U 11044A   26256.66956556  .00000594  00000-0  92133-4 0  9992
2 37788  98.2573 156.3749 0033782 195.9280 222.3701 14.76654263809582

AllMySatでEDUSATをリアルタイム追跡

Download on the App Store